contact:dominique.lefevre@mio.osupytheas.fr, maurice.libes@osupytheas.fr, didier.mallarino@osupytheas.fr
Project:EMSO http://www.emso-fr.org/EMSO-France
Depth: 2436.0 m
Title:EMSO Ligure Ouest : Data MII capteur AQUADOPP
Date,Latitude,Longitude,X_East,Y_North,Z_Up,Amplitude_X,Amplitude_Y,Amplitude_Z,Batterie,SoundSpeed,Heading,Pitch,Roll,Pressure,TIS,Speed,Direction
, degrees North, degrees East, m.s-1, m.s-1,m.s-1, 1, 1, 1, Volt, m.s-1, degree, degree, degree, dbar, degree_C, m.s-1, degree
2021-03-26T00:04:03,42.805,6.029,-0.04,0.013,-0.033,111.0,110.0,105.0,13.3,1505.2,327.9,-0.8,1.8,2470.524,13.28,0.042,288.0
2021-03-26T00:07:03,42.805,6.029,-0.023,0.008,0.014,111.0,111.0,106.0,13.4,1505.2,327.6,-0.7,1.8,2470.487,13.28,0.024,289.2
2021-03-26T00:10:03,42.805,6.029,-0.03,0.002,0.0,110.0,109.0,106.0,13.4,1505.2,326.7,-0.8,1.8,2470.447,13.28,0.03,273.8
2021-03-26T00:13:03,42.805,6.029,-0.043,-0.004,0.014,110.0,109.0,106.0,13.4,1505.2,327.7,-0.8,1.9,2470.475,13.28,0.043,264.7
2021-03-26T00:16:03,42.805,6.029,-0.022,-0.017,0.003,109.0,107.0,107.0,13.4,1505.2,327.5,-0.8,1.8,2470.458,13.28,0.027,232.3
2021-03-26T00:19:03,42.805,6.029,-0.032,0.001,0.012,110.0,108.0,106.0,13.4,1505.2,327.3,-0.7,1.8,2470.455,13.28,0.032,271.8
2021-03-26T00:22:03,42.805,6.029,-0.035,-0.014,-0.024,109.0,110.0,105.0,13.4,1505.2,327.0,-0.8,1.8,2470.5,13.28,0.037,248.2
2021-03-26T00:25:03,42.805,6.029,-0.025,-0.003,-0.013,111.0,108.0,106.0,13.3,1505.2,327.1,-0.7,1.8,2470.49,13.28,0.025,263.2
2021-03-26T00:28:03,42.805,6.029,-0.036,-0.007,-0.033,111.0,109.0,106.0,13.3,1505.2,327.8,-0.7,1.8,2470.503,13.28,0.036,259.0
2021-03-26T00:31:03,42.805,6.029,-0.029,-0.016,0.0,110.0,111.0,107.0,13.4,1505.2,327.2,-0.8,1.8,2470.476,13.28,0.033,241.1
2021-03-26T00:34:03,42.805,6.029,-0.044,-0.01,0.008,111.0,109.0,105.0,13.3,1505.2,327.5,-0.8,1.8,2470.467,13.28,0.045,257.2
2021-03-26T00:37:03,42.805,6.029,-0.019,-0.011,-0.044,109.0,111.0,107.0,13.4,1505.2,328.0,-0.8,1.8,2470.489,13.28,0.021,239.9
2021-03-26T00:40:03,42.805,6.029,-0.049,-0.002,0.023,110.0,109.0,106.0,13.4,1505.2,327.5,-0.7,1.8,2470.478,13.28,0.049,267.7
2021-03-26T00:43:03,42.805,6.029,-0.032,-0.005,-0.025,111.0,111.0,105.0,13.4,1505.2,327.2,-0.7,1.8,2470.52,13.28,0.032,261.1
2021-03-26T00:46:03,42.805,6.029,-0.027,0.008,0.009,110.0,108.0,106.0,13.4,1505.2,327.1,-0.7,1.8,2470.432,13.28,0.028,286.5
2021-03-26T00:49:03,42.805,6.029,-0.023,-0.001,0.029,111.0,108.0,107.0,13.3,1505.2,327.6,-0.8,1.8,2470.457,13.28,0.023,267.5
2021-03-26T00:52:03,42.805,6.029,-0.038,0.0,-0.024,110.0,110.0,109.0,13.4,1505.2,327.0,-0.7,1.8,2470.461,13.28,0.038,270.0
2021-03-26T00:55:03,42.805,6.029,-0.043,0.013,-0.02,110.0,109.0,107.0,13.3,1505.2,327.1,-0.8,1.8,2470.478,13.28,0.044,286.8
2021-03-26T00:58:03,42.805,6.029,-0.029,-0.01,0.021,110.0,109.0,104.0,13.4,1505.2,327.5,-0.8,1.8,2470.507,13.28,0.03,251.0
2021-03-26T01:04:03,42.805,6.029,-0.035,0.0,0.006,110.0,109.0,107.0,13.4,1505.2,327.3,-0.7,1.8,2470.566,13.28,0.035,270.0
2021-03-26T01:07:03,42.805,6.029,-0.044,-0.004,-0.024,110.0,109.0,108.0,13.3,1505.2,327.4,-0.7,1.8,2470.526,13.28,0.044,264.8
2021-03-26T01:10:03,42.805,6.029,-0.043,0.001,0.016,110.0,110.0,106.0,13.3,1505.2,327.0,-0.8,1.8,2470.533,13.28,0.043,271.3
2021-03-26T01:13:03,42.805,6.029,-0.035,-0.01,-0.002,110.0,108.0,105.0,13.4,1505.2,327.8,-0.7,1.8,2470.528,13.28,0.036,254.1
2021-03-26T01:16:03,42.805,6.029,-0.034,-0.005,-0.004,111.0,110.0,105.0,13.4,1505.2,327.6,-0.7,1.8,2470.501,13.28,0.034,261.6
2021-03-26T01:19:03,42.805,6.029,-0.05,-0.007,-0.018,110.0,108.0,107.0,13.4,1505.2,327.1,-0.7,1.8,2470.562,13.28,0.05,262.0
2021-03-26T01:22:03,42.805,6.029,-0.038,-0.02,-0.021,111.0,109.0,106.0,13.4,1505.2,327.6,-0.8,1.8,2470.511,13.28,0.042,242.2
2021-03-26T01:25:03,42.805,6.029,-0.048,-0.013,-0.014,111.0,110.0,106.0,13.4,1505.2,327.2,-0.8,1.8,2470.504,13.28,0.049,254.8
2021-03-26T01:28:03,42.805,6.029,-0.039,-0.005,-0.002,110.0,109.0,105.0,13.4,1505.2,327.1,-0.7,1.8,2470.571,13.28,0.039,262.7
2021-03-26T01:31:03,42.805,6.029,-0.035,0.002,0.006,110.0,108.0,106.0,13.4,1505.2,327.8,-0.7,1.8,2470.535,13.28,0.035,273.3
2021-03-26T01:34:03,42.805,6.029,-0.03,-0.027,-0.003,111.0,109.0,107.0,13.4,1505.2,327.2,-0.7,1.8,2470.566,13.28,0.04,228.0
2021-03-26T01:37:03,42.805,6.029,-0.042,-0.01,-0.017,110.0,109.0,107.0,13.4,1505.2,327.1,-0.8,1.8,2470.518,13.28,0.043,256.6
2021-03-26T01:40:03,42.805,6.029,-0.038,-0.019,-0.008,112.0,109.0,106.0,13.4,1505.2,327.2,-0.8,1.8,2470.562,13.28,0.042,243.4
2021-03-26T01:43:03,42.805,6.029,-0.047,0.0,-0.01,110.0,110.0,107.0,13.3,1505.2,327.1,-0.8,1.8,2470.555,13.28,0.047,270.0
2021-03-26T01:46:03,42.805,6.029,-0.033,-0.001,-0.019,110.0,109.0,106.0,13.4,1505.2,327.6,-0.7,1.8,2470.536,13.28,0.033,268.3
2021-03-26T01:49:03,42.805,6.029,-0.035,-0.011,0.007,110.0,109.0,106.0,13.3,1505.2,327.4,-0.8,1.9,2470.523,13.28,0.036,252.6
2021-03-26T01:52:03,42.805,6.029,-0.03,-0.008,-0.031,110.0,108.0,107.0,13.4,1505.2,327.4,-0.8,1.9,2470.556,13.28,0.031,255.1
2021-03-26T01:55:03,42.805,6.029,-0.038,0.004,-0.002,111.0,110.0,106.0,13.4,1505.2,327.7,-0.8,1.8,2470.543,13.28,0.038,276.0
2021-03-26T01:58:03,42.805,6.029,-0.035,-0.004,0.001,110.0,110.0,106.0,13.4,1505.2,327.7,-0.8,1.8,2470.566,13.28,0.035,263.5
2021-03-26T02:04:03,42.805,6.029,-0.038,-0.031,-0.001,111.0,109.0,108.0,13.4,1505.2,327.0,-0.8,1.8,2470.619,13.28,0.049,230.8
2021-03-26T02:07:03,42.805,6.029,-0.041,-0.008,-0.017,110.0,110.0,106.0,13.3,1505.2,327.5,-0.8,1.8,2470.562,13.28,0.041,259.0
2021-03-26T02:10:03,42.805,6.029,-0.042,-0.009,-0.021,112.0,110.0,106.0,13.4,1505.2,327.1,-0.8,1.8,2470.581,13.28,0.042,257.9
2021-03-26T02:13:03,42.805,6.029,-0.047,-0.012,0.013,111.0,110.0,107.0,13.4,1505.2,327.4,-0.7,1.8,2470.565,13.28,0.048,255.7
2021-03-26T02:16:03,42.805,6.029,-0.044,-0.013,-0.011,111.0,111.0,106.0,13.4,1505.2,327.4,-0.8,1.8,2470.553,13.28,0.045,253.5
2021-03-26T02:19:03,42.805,6.029,-0.049,-0.018,0.0,111.0,110.0,106.0,13.4,1505.2,327.1,-0.7,1.8,2470.569,13.28,0.052,249.8
2021-03-26T02:22:03,42.805,6.029,-0.04,-0.015,-0.02,111.0,110.0,106.0,13.3,1505.2,327.7,-0.8,1.8,2470.555,13.28,0.042,249.4
2021-03-26T02:25:03,42.805,6.029,-0.059,0.001,0.005,109.0,110.0,107.0,13.4,1505.2,327.1,-0.8,1.8,2470.589,13.28,0.059,271.0
2021-03-26T02:28:03,42.805,6.029,-0.045,-0.007,-0.011,110.0,110.0,106.0,13.3,1505.2,327.0,-0.8,1.8,2470.607,13.28,0.045,261.2
2021-03-26T02:31:03,42.805,6.029,-0.036,-0.006,-0.002,112.0,110.0,106.0,13.3,1505.2,327.3,-0.8,1.8,2470.566,13.28,0.036,260.5
2021-03-26T02:34:03,42.805,6.029,-0.06,0.005,-0.005,111.0,111.0,106.0,13.3,1505.2,327.0,-0.8,1.8,2470.578,13.28,0.06,274.8
2021-03-26T02:37:03,42.805,6.029,-0.035,0.002,-0.001,110.0,110.0,107.0,13.4,1505.2,327.1,-0.7,1.8,2470.559,13.28,0.035,273.3
2021-03-26T02:40:03,42.805,6.029,-0.044,-0.017,0.012,111.0,110.0,107.0,13.3,1505.2,327.3,-0.7,1.9,2470.568,13.28,0.047,248.9
2021-03-26T02:43:03,42.805,6.029,-0.051,-0.015,0.004,112.0,110.0,107.0,13.4,1505.2,327.8,-0.7,1.8,2470.561,13.28,0.053,253.6
2021-03-26T02:46:03,42.805,6.029,-0.065,-0.028,-0.021,112.0,110.0,108.0,13.4,1505.2,327.2,-0.7,1.8,2470.552,13.28,0.07,246.7
2021-03-26T02:49:03,42.805,6.029,-0.051,-0.028,-0.039,111.0,110.0,107.0,13.4,1505.2,327.8,-0.8,1.8,2470.594,13.28,0.058,241.2
2021-03-26T02:52:03,42.805,6.029,-0.054,-0.002,-0.009,112.0,109.0,107.0,13.4,1505.2,327.3,-0.8,1.8,2470.538,13.28,0.054,267.9
2021-03-26T02:55:03,42.805,6.029,-0.037,0.004,-0.013,110.0,110.0,106.0,13.4,1505.2,327.2,-0.7,1.8,2470.582,13.28,0.037,276.2
2021-03-26T02:58:03,42.805,6.029,-0.049,0.0,0.021,111.0,110.0,108.0,13.4,1505.2,327.5,-0.7,1.8,2470.593,13.28,0.049,270.0
2021-03-26T03:04:03,42.805,6.029,-0.046,-0.02,-0.002,111.0,110.0,107.0,13.3,1505.2,327.0,-0.8,1.8,2470.644,13.28,0.05,246.5
2021-03-26T03:07:03,42.805,6.029,-0.054,-0.011,0.011,110.0,110.0,107.0,13.4,1505.2,327.8,-0.7,1.8,2470.643,13.28,0.055,258.5
2021-03-26T03:10:03,42.805,6.029,-0.046,-0.001,-0.024,111.0,111.0,107.0,13.3,1505.2,327.1,-0.7,1.8,2470.609,13.28,0.046,268.8
2021-03-26T03:13:03,42.805,6.029,-0.058,-0.009,-0.006,113.0,110.0,107.0,13.3,1505.2,327.2,-0.7,1.8,2470.601,13.28,0.058,261.2
2021-03-26T03:16:03,42.805,6.029,-0.058,0.008,-0.002,109.0,110.0,106.0,13.4,1505.2,327.2,-0.7,1.8,2470.628,13.28,0.058,277.8
2021-03-26T03:19:03,42.805,6.029,-0.034,-0.014,-0.012,113.0,110.0,108.0,13.4,1505.2,326.8,-0.7,1.8,2470.622,13.28,0.036,247.6
2021-03-26T03:22:03,42.805,6.029,-0.05,-0.008,0.01,112.0,111.0,108.0,13.4,1505.2,327.4,-0.8,1.8,2470.632,13.28,0.05,260.9
2021-03-26T03:25:03,42.805,6.029,-0.037,0.008,-0.007,113.0,110.0,107.0,13.3,1505.2,327.6,-0.7,1.9,2470.617,13.28,0.037,282.2
2021-03-26T03:28:03,42.805,6.029,-0.058,-0.01,0.012,113.0,111.0,107.0,13.4,1505.2,327.6,-0.8,1.9,2470.592,13.28,0.058,260.2
2021-03-26T03:31:03,42.805,6.029,-0.059,0.001,0.029,110.0,111.0,107.0,13.4,1505.2,326.8,-0.8,1.8,2470.631,13.28,0.059,271.0
2021-03-26T03:34:03,42.805,6.029,-0.075,0.008,-0.011,110.0,109.0,108.0,13.3,1505.2,327.0,-0.7,1.8,2470.623,13.28,0.075,276.1
2021-03-26T03:37:03,42.805,6.029,-0.044,0.012,-0.009,112.0,111.0,108.0,13.3,1505.2,327.8,-0.7,1.8,2470.63,13.28,0.045,285.3
2021-03-26T03:40:03,42.805,6.029,-0.072,0.012,-0.038,112.0,110.0,107.0,13.4,1505.2,327.4,-0.7,1.9,2470.599,13.28,0.072,279.5
2021-03-26T03:43:03,42.805,6.029,-0.032,0.012,-0.003,113.0,110.0,107.0,13.4,1505.2,327.2,-0.8,1.8,2470.608,13.28,0.034,290.6
2021-03-26T03:46:03,42.805,6.029,-0.044,-0.006,-0.007,112.0,112.0,108.0,13.4,1505.2,327.2,-0.7,1.8,2470.625,13.28,0.044,262.2
2021-03-26T03:49:03,42.805,6.029,-0.035,-0.011,-0.004,112.0,111.0,107.0,13.3,1505.2,327.3,-0.7,1.8,2470.65,13.28,0.036,252.6
2021-03-26T03:52:03,42.805,6.029,-0.07,0.001,-0.03,111.0,109.0,108.0,13.4,1505.2,327.3,-0.8,1.8,2470.597,13.28,0.07,270.8
2021-03-26T03:55:03,42.805,6.029,-0.06,-0.004,-0.023,111.0,112.0,106.0,13.4,1505.2,327.1,-0.8,1.8,2470.673,13.28,0.06,266.2
2021-03-26T03:58:03,42.805,6.029,-0.05,-0.013,-0.013,111.0,111.0,107.0,13.4,1505.2,327.0,-0.8,1.8,2470.635,13.28,0.051,255.4
2021-03-26T04:04:03,42.805,6.029,-0.016,-0.007,-0.015,111.0,110.0,108.0,13.3,1505.2,327.5,-0.8,1.9,2470.7,13.28,0.017,246.4
2021-03-26T04:07:03,42.805,6.029,-0.053,-0.005,0.0,112.0,111.0,106.0,13.4,1505.2,327.7,-0.8,1.8,2470.642,13.28,0.053,264.6
2021-03-26T04:10:03,42.805,6.029,-0.04,-0.007,-0.006,111.0,110.0,108.0,13.3,1505.2,327.6,-0.7,1.8,2470.631,13.28,0.04,260.1
2021-03-26T04:13:03,42.805,6.029,-0.043,-0.01,-0.012,110.0,111.0,106.0,13.4,1505.2,327.1,-0.8,1.8,2470.667,13.28,0.044,256.9
2021-03-26T04:16:03,42.805,6.029,-0.048,0.003,-0.062,112.0,111.0,107.0,13.4,1505.2,328.1,-0.7,1.8,2470.657,13.28,0.048,273.6
2021-03-26T04:19:03,42.805,6.029,-0.033,0.011,-0.027,111.0,110.0,107.0,13.3,1505.2,327.1,-0.8,1.8,2470.64,13.28,0.034,288.4
2021-03-26T04:22:03,42.805,6.029,-0.06,0.005,-0.001,112.0,111.0,107.0,13.3,1505.2,327.4,-0.8,1.8,2470.642,13.28,0.06,274.8
2021-03-26T04:25:03,42.805,6.029,-0.052,0.009,0.022,112.0,110.0,106.0,13.4,1505.2,327.6,-0.8,1.9,2470.672,13.28,0.052,279.8
2021-03-26T04:28:03,42.805,6.029,-0.017,-0.003,-0.018,112.0,111.0,106.0,13.3,1505.2,327.6,-0.8,1.8,2470.665,13.28,0.017,260.0
2021-03-26T04:31:03,42.805,6.029,-0.053,-0.004,0.011,112.0,109.0,108.0,13.3,1505.2,327.7,-0.7,1.8,2470.624,13.28,0.053,265.7
2021-03-26T04:34:03,42.805,6.029,-0.052,-0.013,-0.012,112.0,111.0,107.0,13.4,1505.2,327.5,-0.8,1.8,2470.656,13.28,0.053,256.0
2021-03-26T04:37:03,42.805,6.029,-0.031,0.007,-0.02,112.0,109.0,108.0,13.4,1505.2,327.3,-0.7,1.8,2470.647,13.28,0.031,282.7
2021-03-26T04:40:03,42.805,6.029,-0.038,-0.005,0.013,111.0,110.0,106.0,13.4,1505.2,327.3,-0.8,1.8,2470.674,13.28,0.038,262.5
2021-03-26T04:43:03,42.805,6.029,-0.056,0.012,-0.014,109.0,109.0,106.0,13.4,1505.2,327.7,-0.8,1.8,2470.673,13.28,0.057,282.1
2021-03-26T04:46:03,42.805,6.029,-0.072,-0.005,-0.005,111.0,109.0,107.0,13.4,1505.2,326.8,-0.8,1.8,2470.703,13.28,0.072,266.0
2021-03-26T04:49:03,42.805,6.029,-0.059,0.009,0.0,110.0,108.0,108.0,13.3,1505.2,327.2,-0.7,1.8,2470.631,13.28,0.059,278.7
2021-03-26T04:52:03,42.805,6.029,-0.064,0.007,0.012,112.0,110.0,105.0,13.4,1505.2,327.2,-0.8,1.8,2470.666,13.28,0.064,276.2
2021-03-26T04:55:03,42.805,6.029,-0.066,0.011,0.017,110.0,110.0,107.0,13.4,1505.2,327.8,-0.7,1.8,2470.668,13.28,0.066,279.5
2021-03-26T04:58:03,42.805,6.029,-0.065,0.028,-0.033,112.0,110.0,106.0,13.3,1505.2,327.2,-0.7,1.8,2470.7,13.28,0.07,293.3
2021-03-26T05:04:03,42.805,6.029,-0.051,0.013,0.007,112.0,110.0,107.0,13.4,1505.2,327.3,-0.7,1.8,2470.715,13.28,0.052,284.3
2021-03-26T05:07:03,42.805,6.029,-0.059,0.003,-0.017,112.0,111.0,107.0,13.4,1505.2,327.6,-0.8,1.8,2470.708,13.28,0.059,272.9
2021-03-26T05:10:03,42.805,6.029,-0.058,0.011,0.0,111.0,110.0,107.0,13.4,1505.2,327.5,-0.8,1.8,2470.692,13.28,0.059,280.7
2021-03-26T05:13:03,42.805,6.029,-0.066,-0.007,-0.004,111.0,111.0,107.0,13.4,1505.2,327.5,-0.7,1.8,2470.712,13.28,0.066,263.9
2021-03-26T05:16:03,42.805,6.029,-0.056,0.011,0.007,111.0,111.0,107.0,13.4,1505.2,327.2,-0.7,1.8,2470.683,13.28,0.057,281.1
2021-03-26T05:19:03,42.805,6.029,-0.041,0.001,-0.019,113.0,109.0,107.0,13.4,1505.2,327.1,-0.7,1.8,2470.751,13.28,0.041,271.4
2021-03-26T05:22:03,42.805,6.029,-0.047,0.013,0.0,111.0,110.0,106.0,13.3,1505.2,327.1,-0.7,1.8,2470.716,13.28,0.048,285.5
2021-03-26T05:25:03,42.805,6.029,-0.059,0.016,0.001,112.0,113.0,107.0,13.4,1505.2,327.5,-0.7,1.8,2470.693,13.28,0.061,285.2
2021-03-26T05:28:03,42.805,6.029,-0.054,0.015,0.002,110.0,110.0,108.0,13.4,1505.2,327.2,-0.8,1.8,2470.663,13.28,0.056,285.5
2021-03-26T05:31:03,42.805,6.029,-0.052,0.007,-0.029,111.0,109.0,107.0,13.4,1505.2,327.5,-0.7,1.8,2470.694,13.28,0.052,277.7
2021-03-26T05:34:03,42.805,6.029,-0.065,-0.004,-0.015,112.0,111.0,110.0,13.4,1505.2,327.7,-0.8,1.9,2470.655,13.28,0.065,266.5
2021-03-26T05:37:03,42.805,6.029,-0.054,0.016,0.018,111.0,111.0,109.0,13.4,1505.2,327.7,-0.7,1.8,2470.715,13.28,0.056,286.5
2021-03-26T05:40:03,42.805,6.029,-0.054,0.017,0.006,112.0,109.0,107.0,13.3,1505.2,326.7,-0.8,1.8,2470.656,13.28,0.056,287.5
2021-03-26T05:43:03,42.805,6.029,-0.054,0.009,-0.022,110.0,110.0,107.0,13.3,1505.2,327.4,-0.8,1.8,2470.702,13.28,0.054,279.5
2021-03-26T05:46:03,42.805,6.029,-0.053,0.012,-0.004,111.0,111.0,106.0,13.4,1505.2,327.6,-0.8,1.9,2470.665,13.28,0.054,282.8
2021-03-26T05:49:03,42.805,6.029,-0.041,0.006,-0.015,112.0,111.0,107.0,13.4,1505.2,327.8,-0.7,1.8,2470.736,13.28,0.041,278.3
2021-03-26T05:52:03,42.805,6.029,-0.055,0.023,-0.026,112.0,111.0,108.0,13.3,1505.2,327.7,-0.7,1.8,2470.702,13.28,0.059,292.7
2021-03-26T05:55:03,42.805,6.029,-0.044,0.005,0.01,111.0,111.0,107.0,13.4,1505.2,327.1,-0.7,1.8,2470.686,13.28,0.044,276.5
2021-03-26T05:58:03,42.805,6.029,-0.05,0.003,-0.004,110.0,110.0,108.0,13.4,1505.2,327.2,-0.7,1.8,2470.747,13.28,0.05,273.4
2021-03-26T06:04:03,42.805,6.029,-0.059,0.017,-0.002,111.0,110.0,107.0,13.3,1505.2,326.8,-0.7,1.8,2470.674,13.28,0.061,286.1
2021-03-26T06:07:03,42.805,6.029,-0.056,0.008,0.006,112.0,110.0,107.0,13.4,1505.2,327.3,-0.8,1.8,2470.697,13.28,0.056,278.1
2021-03-26T06:10:03,42.805,6.029,-0.05,0.027,-0.013,111.0,110.0,107.0,13.3,1505.2,327.2,-0.8,1.9,2470.717,13.28,0.056,298.4
2021-03-26T06:13:03,42.805,6.029,-0.084,0.004,-0.027,111.0,109.0,106.0,13.4,1505.2,327.4,-0.7,1.8,2470.714,13.28,0.084,272.7
2021-03-26T06:16:03,42.805,6.029,-0.053,0.018,-0.004,111.0,110.0,107.0,13.4,1505.2,327.6,-0.8,1.8,2470.697,13.28,0.055,288.8
2021-03-26T06:19:03,42.805,6.029,-0.055,0.032,0.022,111.0,110.0,106.0,13.4,1505.2,326.8,-0.7,1.8,2470.72,13.28,0.063,300.2
2021-03-26T06:22:03,42.805,6.029,-0.03,0.023,0.029,110.0,111.0,106.0,13.4,1505.2,327.3,-0.8,1.8,2470.691,13.28,0.037,307.5
2021-03-26T06:25:03,42.805,6.029,-0.069,0.038,-0.018,110.0,110.0,106.0,13.4,1505.2,327.3,-0.7,1.9,2470.722,13.28,0.078,298.8
2021-03-26T06:28:03,42.805,6.029,-0.056,0.037,-0.016,110.0,110.0,107.0,13.4,1505.2,327.5,-0.8,1.8,2470.685,13.28,0.067,303.5
2021-03-26T06:31:03,42.805,6.029,-0.043,0.018,0.004,111.0,109.0,107.0,13.3,1505.2,326.8,-0.7,1.8,2470.689,13.28,0.046,292.7
2021-03-26T06:34:03,42.805,6.029,-0.044,0.009,0.022,110.0,110.0,107.0,13.4,1505.2,327.4,-0.8,1.8,2470.708,13.28,0.044,281.6
2021-03-26T06:37:03,42.805,6.029,-0.061,0.035,0.004,111.0,111.0,106.0,13.4,1505.2,327.6,-0.8,1.8,2470.726,13.28,0.07,299.8
2021-03-26T06:40:03,42.805,6.029,-0.052,0.002,-0.002,111.0,111.0,108.0,13.4,1505.2,326.8,-0.8,1.9,2470.704,13.28,0.052,272.2
2021-03-26T06:43:03,42.805,6.029,-0.068,0.027,-0.02,112.0,110.0,107.0,13.4,1505.2,327.3,-0.8,1.8,2470.688,13.28,0.073,291.7
2021-03-26T06:46:03,42.805,6.029,-0.046,0.022,0.009,110.0,111.0,107.0,13.4,1505.2,327.3,-0.8,1.8,2470.702,13.28,0.05,295.6
2021-03-26T06:49:03,42.805,6.029,-0.054,0.01,-0.021,112.0,112.0,107.0,13.4,1505.2,327.7,-0.7,1.9,2470.71,13.28,0.054,280.5
2021-03-26T06:52:03,42.805,6.029,-0.063,-0.006,0.009,111.0,111.0,107.0,13.4,1505.2,327.1,-0.8,1.8,2470.685,13.28,0.063,264.6
2021-03-26T06:55:03,42.805,6.029,-0.033,0.015,0.009,112.0,112.0,108.0,13.4,1505.2,327.2,-0.8,1.8,2470.69,13.28,0.036,294.4
2021-03-26T06:58:03,42.805,6.029,-0.043,0.004,-0.009,111.0,110.0,107.0,13.3,1505.2,327.2,-0.7,1.8,2470.672,13.28,0.043,275.3
2021-03-26T07:04:03,42.805,6.029,-0.048,0.001,-0.024,112.0,112.0,106.0,13.3,1505.2,327.8,-0.7,1.8,2470.731,13.28,0.048,271.2
2021-03-26T07:07:03,42.805,6.029,-0.036,0.008,0.0,112.0,111.0,108.0,13.4,1505.2,326.8,-0.7,1.8,2470.683,13.28,0.036,282.5
2021-03-26T07:10:03,42.805,6.029,-0.067,0.024,-0.029,112.0,111.0,106.0,13.4,1505.2,327.7,-0.8,1.8,2470.676,13.28,0.071,289.7
2021-03-26T07:13:03,42.805,6.029,-0.035,0.006,-0.054,111.0,110.0,106.0,13.4,1505.2,326.8,-0.8,1.8,2470.685,13.28,0.035,279.7
2021-03-26T07:16:03,42.805,6.029,-0.054,0.017,0.008,112.0,110.0,108.0,13.3,1505.2,327.4,-0.7,1.8,2470.71,13.28,0.056,287.5
2021-03-26T07:19:03,42.805,6.029,-0.056,0.042,-0.035,111.0,110.0,106.0,13.3,1505.2,327.5,-0.8,1.8,2470.723,13.28,0.069,306.9
2021-03-26T07:22:03,42.805,6.029,-0.07,0.011,0.001,111.0,111.0,106.0,13.4,1505.2,327.8,-0.7,1.8,2470.715,13.28,0.07,278.9
2021-03-26T07:25:03,42.805,6.029,-0.056,0.026,-0.013,110.0,110.0,108.0,13.4,1505.2,327.5,-0.8,1.8,2470.668,13.28,0.061,294.9
2021-03-26T07:28:03,42.805,6.029,-0.068,0.021,-0.002,112.0,110.0,107.0,13.4,1505.2,327.0,-0.8,1.8,2470.682,13.28,0.071,287.2
2021-03-26T07:31:03,42.805,6.029,-0.046,0.012,-0.029,111.0,110.0,106.0,13.4,1505.2,327.3,-0.8,1.8,2470.703,13.28,0.047,284.6
2021-03-26T07:34:03,42.805,6.029,-0.038,0.0,-0.009,111.0,112.0,106.0,13.4,1505.2,327.4,-0.8,1.8,2470.685,13.28,0.038,270.0
2021-03-26T07:37:03,42.805,6.029,-0.065,0.011,-0.019,113.0,110.0,107.0,13.4,1505.2,327.4,-0.8,1.8,2470.715,13.28,0.065,279.6
2021-03-26T07:40:03,42.805,6.029,-0.062,0.014,0.008,112.0,110.0,107.0,13.4,1505.2,327.4,-0.7,1.8,2470.682,13.28,0.063,282.7
2021-03-26T07:43:03,42.805,6.029,-0.054,0.001,0.005,111.0,110.0,106.0,13.4,1505.2,327.0,-0.8,1.8,2470.692,13.28,0.054,271.1
2021-03-26T07:46:03,42.805,6.029,-0.038,0.002,-0.009,111.0,109.0,105.0,13.4,1505.2,326.7,-0.8,1.8,2470.698,13.28,0.038,273.0
2021-03-26T07:49:03,42.805,6.029,-0.062,-0.005,-0.011,111.0,110.0,106.0,13.4,1505.2,327.1,-0.7,1.8,2470.704,13.28,0.062,265.4
2021-03-26T07:52:03,42.805,6.029,-0.044,0.018,0.01,112.0,111.0,108.0,13.4,1505.2,327.1,-0.8,1.9,2470.646,13.28,0.047,292.2
2021-03-26T07:55:03,42.805,6.029,-0.037,0.01,-0.007,111.0,110.0,106.0,13.4,1505.2,327.5,-0.7,1.8,2470.677,13.28,0.038,285.1
2021-03-26T07:58:03,42.805,6.029,-0.037,0.02,0.005,111.0,110.0,107.0,13.4,1505.2,327.7,-0.8,1.9,2470.671,13.28,0.042,298.4
2021-03-26T08:04:03,42.805,6.029,-0.074,0.025,0.006,112.0,109.0,107.0,13.3,1505.2,327.3,-0.8,1.8,2470.672,13.28,0.078,288.7
2021-03-26T08:07:03,42.805,6.029,-0.042,0.02,0.005,112.0,110.0,108.0,13.4,1505.2,327.6,-0.8,1.8,2470.685,13.28,0.046,295.5
2021-03-26T08:10:03,42.805,6.029,-0.066,0.011,-0.012,111.0,109.0,107.0,13.3,1505.2,327.1,-0.8,1.8,2470.639,13.28,0.066,279.5
2021-03-26T08:13:03,42.805,6.029,-0.044,0.004,-0.025,111.0,110.0,106.0,13.4,1505.2,327.0,-0.7,1.8,2470.688,13.28,0.044,275.2
2021-03-26T08:16:03,42.805,6.029,-0.047,0.003,0.014,111.0,111.0,107.0,13.4,1505.2,327.0,-0.8,1.8,2470.658,13.28,0.047,273.6
2021-03-26T08:19:03,42.805,6.029,-0.052,0.018,-0.007,111.0,111.0,109.0,13.4,1505.2,327.1,-0.8,1.8,2470.648,13.28,0.055,289.1
2021-03-26T08:22:03,42.805,6.029,-0.054,0.029,-0.001,112.0,112.0,106.0,13.4,1505.2,327.6,-0.8,1.9,2470.642,13.28,0.061,298.2
2021-03-26T08:25:03,42.805,6.029,-0.026,-0.002,-0.02,110.0,111.0,106.0,13.4,1505.2,327.7,-0.7,1.8,2470.71,13.28,0.026,265.6
2021-03-26T08:28:03,42.805,6.029,-0.06,0.009,-0.017,110.0,110.0,107.0,13.4,1505.2,327.5,-0.8,1.8,2470.648,13.28,0.06,278.5
2021-03-26T08:31:03,42.805,6.029,-0.067,0.008,0.004,112.0,111.0,106.0,13.4,1505.2,326.7,-0.8,1.8,2470.638,13.28,0.067,276.8
2021-03-26T08:34:03,42.805,6.029,-0.051,0.033,0.009,110.0,110.0,108.0,13.4,1505.2,327.0,-0.8,1.8,2470.63,13.28,0.06,302.9
2021-03-26T08:37:03,42.805,6.029,-0.064,0.016,0.0,111.0,110.0,108.0,13.4,1505.2,327.6,-0.8,1.8,2470.634,13.28,0.065,284.0
2021-03-26T08:40:03,42.805,6.029,-0.058,0.036,-0.004,111.0,109.0,106.0,13.3,1505.2,327.7,-0.7,1.8,2470.669,13.28,0.068,301.8
2021-03-26T08:43:03,42.805,6.029,-0.059,0.016,0.009,110.0,110.0,106.0,13.4,1505.2,327.2,-0.7,1.8,2470.616,13.28,0.061,285.2
2021-03-26T08:46:03,42.805,6.029,-0.056,0.022,-0.012,111.0,110.0,106.0,13.4,1505.2,327.8,-0.7,1.8,2470.625,13.28,0.06,291.4
2021-03-26T08:49:03,42.805,6.029,-0.068,0.006,-0.012,111.0,111.0,108.0,13.4,1505.2,327.8,-0.7,1.9,2470.66,13.28,0.068,275.0
2021-03-26T08:52:03,42.805,6.029,-0.057,0.02,-0.017,110.0,109.0,107.0,13.4,1505.2,327.1,-0.7,1.8,2470.633,13.28,0.06,289.3
2021-03-26T08:55:03,42.805,6.029,-0.075,0.04,-0.009,110.0,109.0,107.0,13.4,1505.2,327.2,-0.7,1.8,2470.615,13.28,0.084,298.1
2021-03-26T08:58:03,42.805,6.029,-0.056,0.004,0.001,110.0,110.0,106.0,13.4,1505.2,327.1,-0.8,1.8,2470.641,13.28,0.056,274.1
2021-03-26T09:04:03,42.805,6.029,-0.049,0.03,0.024,110.0,110.0,107.0,13.4,1505.2,327.4,-0.7,1.8,2470.634,13.28,0.057,301.5
2021-03-26T09:07:03,42.805,6.029,-0.07,0.021,-0.031,111.0,109.0,108.0,13.3,1505.2,327.6,-0.7,1.8,2470.687,13.28,0.073,286.7
2021-03-26T09:10:03,42.805,6.029,-0.067,0.004,-0.016,111.0,109.0,106.0,13.3,1505.2,327.3,-0.7,1.8,2470.632,13.28,0.067,273.4
2021-03-26T09:13:03,42.805,6.029,-0.08,0.035,-0.017,110.0,109.0,107.0,13.4,1505.2,327.3,-0.7,1.9,2470.667,13.28,0.087,293.6
2021-03-26T09:16:03,42.805,6.029,-0.061,0.024,-0.034,111.0,110.0,107.0,13.3,1505.2,327.7,-0.8,1.8,2470.65,13.28,0.065,291.5
2021-03-26T09:19:03,42.805,6.029,-0.037,0.006,0.014,111.0,109.0,107.0,13.3,1505.2,327.2,-0.8,1.8,2470.617,13.28,0.037,279.2
2021-03-26T09:22:03,42.805,6.029,-0.054,0.019,-0.007,111.0,109.0,107.0,13.4,1505.2,327.4,-0.7,1.8,2470.642,13.28,0.057,289.4
2021-03-26T09:25:03,42.805,6.029,-0.069,0.003,-0.032,110.0,108.0,108.0,13.4,1505.2,327.5,-0.8,1.8,2470.59,13.28,0.069,272.5
2021-03-26T09:28:03,42.805,6.029,-0.04,0.003,0.001,111.0,111.0,107.0,13.3,1505.2,327.6,-0.8,1.8,2470.622,13.28,0.04,274.3
2021-03-26T09:31:03,42.805,6.029,-0.07,0.016,-0.008,112.0,110.0,107.0,13.3,1505.2,327.0,-0.8,1.8,2470.583,13.28,0.071,282.9
2021-03-26T09:34:03,42.805,6.029,-0.052,0.024,0.001,110.0,111.0,106.0,13.4,1505.2,327.3,-0.7,1.8,2470.605,13.28,0.057,294.8
2021-03-26T09:37:03,42.805,6.029,-0.061,0.031,-0.011,111.0,110.0,107.0,13.3,1505.2,327.1,-0.8,1.8,2470.613,13.28,0.068,296.9
2021-03-26T09:40:03,42.805,6.029,-0.054,0.008,0.009,110.0,110.0,106.0,13.4,1505.2,327.4,-0.8,1.8,2470.595,13.28,0.054,278.4
2021-03-26T09:43:03,42.805,6.029,-0.06,0.008,0.002,110.0,110.0,106.0,13.4,1505.2,327.4,-0.7,1.8,2470.606,13.28,0.06,277.6
2021-03-26T09:46:03,42.805,6.029,-0.046,0.024,-0.014,111.0,110.0,107.0,13.3,1505.2,327.3,-0.7,1.8,2470.617,13.28,0.051,297.6
2021-03-26T09:49:03,42.805,6.029,-0.072,0.018,-0.011,112.0,109.0,106.0,13.4,1505.2,327.1,-0.7,1.8,2470.595,13.28,0.074,284.0
2021-03-26T09:52:03,42.805,6.029,-0.058,0.011,-0.013,112.0,109.0,105.0,13.3,1505.2,327.7,-0.8,1.8,2470.577,13.28,0.059,280.7
2021-03-26T09:55:03,42.805,6.029,-0.068,0.014,-0.027,112.0,111.0,107.0,13.3,1505.2,327.3,-0.7,1.8,2470.613,13.28,0.069,281.6